Regional Weather Roundup
Issued by NWS

Home | Current Version | Previous Version | Graphics & Text | Print | Product List | Glossary On
Versions: 1 2 3 4 5 6 7 8 9 10 11 12 13 14 15 16 17 18 19 20 21 22 23 24 25 26 27 28 29 30 31 32 33 34 35 36 37 38 39 40 41 42 43 44 45 46 47 48 49 50
000
ASUS43 KLMK 172302
RWRKY
KENTUCKY REGIONAL WEATHER ROUNDUP
NATIONAL WEATHER SERVICE LOUISVILLE KY
700 PM EDT THU AUG 17 2017

NOTE "FAIR" INDICATES FEW OR NO CLOUDS BELOW 12,000 FEET
WITH NO SIGNIFICANT WEATHER AND/OR OBSTRUCTIONS TO VISIBILITY.

KYZ001>023-026-027-061>063-070>075-180000-
WESTERN AND SOUTH CENTRAL KENTUCKY

CITY           SKY/WX    TMP DP  RH WIND       PRES   REMARKS
PADUCAH        MOSUNNY   85  71  63 W9        29.88S HX  90
HENDERSON      PTSUNNY   85  74  69 SW12G18   29.86S HX  92
OWENSBORO      CLOUDY    81  76  84 SW7       29.87F
HOPKINSVILLE   CLOUDY    83  75  78 S10       29.90S HX  90
BOWLING GREEN  CLOUDY    87  75  67 SW14      29.90F HX  96
GLASGOW        PTSUNNY   84  71  63 SW8       29.91S
$$

KYZ024-025-028>034-038-045-046-053-180000-
NORTH CENTRAL KENTUCKY

CITY           SKY/WX    TMP DP  RH WIND       PRES   REMARKS
LOUISVILLE/SDF TSTM      75  73  93 W18       29.90R VSB 1
LOUISVILLE/LOU TSTM      75  75 100 SW10      29.90R FOG
FORT KNOX      DRIZZLE   75  72  92 NW3       29.89S
$$

KYZ035>037-039>044-047>052-055>060-089>105-180000-
NORTHEAST KENTUCKY

CITY           SKY/WX    TMP DP  RH WIND       PRES   REMARKS
LEXINGTON      SUNNY     87  70  56 SW14      29.89F HX  92
COVINGTON      LGT RAIN  79  76  90 SW10      29.87S
FRANKFORT      MOSUNNY   86  69  56 SW13      29.87S HX  90
$$

KYZ054-064>069-076>088-106>120-180000-
SOUTHEAST KENTUCKY

CITY           SKY/WX    TMP DP  RH WIND       PRES   REMARKS
JACKSON        MOSUNNY   85  72  65 CALM      29.95F HX  91
LONDON         SUNNY     86  68  54 SW8       29.95S
SOMERSET       NOT AVBL
MIDDLESBORO    SUNNY     85  74  69 S6        29.97S HX  93
MONTICELLO     PTCLDY    86  73  65 W13       29.96S HX  93
$$




USA.gov is the U.S. government's official web portal to all federal, state and local government web resources and services.